This is the latest recevied weather packets stored in our database for station/object W0DXV. If no packets are shown the sender has not sent any weather packets the latest 10 day(s).
| Time | Temp. | Humidity | Pressure | Rain* | Wind** | Luminosity | Snow |
|---|---|---|---|---|---|---|---|
| 1778030373 | 17.22° C | 68% | 1009.9 hPa | 0 mm | - | 0 W/m² | - |
| 1778030072 | 17.78° C | 66% | 1009.9 hPa | 0 mm | - | 0 W/m² | - |
| 1778029767 | 17.78° C | 65% | 1010 hPa | 0 mm | - | 0 W/m² | - |
| 1778029467 | 17.78° C | 65% | 1009.9 hPa | 0 mm | - | 0 W/m² | - |
| 1778029162 | 18.33° C | 66% | 1009.8 hPa | 0 mm | - | 0 W/m² | - |
| 1778028860 | 18.33° C | 62% | 1009.9 hPa | 0 mm | - | 0 W/m² | - |
| 1778028555 | 18.89° C | 61% | 1009.6 hPa | 0 mm | - | 0 W/m² | - |
| 1778028254 | 18.89° C | 59% | 1009.6 hPa | 0 mm | - | 0 W/m² | - |
| 1778027949 | 19.44° C | 58% | 1009.5 hPa | 0 mm | - | 0 W/m² | - |
| 1778027645 | 20° C | 55% | 1009.5 hPa | 0 mm | - | 0 W/m² | - |
| 1778027343 | 20° C | 54% | 1009.4 hPa | 0 mm | - | 0 W/m² | - |
| 1778027038 | 20.56° C | 52% | 1009.4 hPa | 0 mm | - | 0 W/m² | - |
| 1778026734 | 21.11° C | 51% | 1009.6 hPa | 0 mm | - | 1 W/m² | - |
| 1778026431 | 21.11° C | 51% | 1009.3 hPa | 0 mm | - | 2 W/m² | - |
| 1778026128 | 21.67° C | 50% | 1009.6 hPa | 0 mm | - | 3 W/m² | - |
| 1778025826 | 21.67° C | 50% | 1009.4 hPa | 0 mm | - | 5 W/m² | - |
| 1778025522 | 22.22° C | 49% | 1009.3 hPa | 0 mm | - | 7 W/m² | - |
| 1778025220 | 22.22° C | 49% | 1009.4 hPa | 0 mm | - | 10 W/m² | - |
| 1778024917 | 22.22° C | 48% | 1009.4 hPa | 0 mm | - | 11 W/m² | - |
| 1778024615 | 22.78° C | 48% | 1009.2 hPa | 0 mm | - | 13 W/m² | - |
| 1778024311 | 22.78° C | 48% | 1009.1 hPa | 0 mm | - | 15 W/m² | - |
| 1778024009 | 22.78° C | 47% | 1009.2 hPa | 0 mm | - | 18 W/m² | - |
| 1778023706 | 23.33° C | 48% | 1009.3 hPa | 0 mm | - | 21 W/m² | - |
| 1778023404 | 23.33° C | 45% | 1009.1 hPa | 0 mm | - | 26 W/m² | - |
| 1778023100 | 23.33° C | 45% | 1009.1 hPa | 0 mm | - | 36 W/m² | - |
* Rain latest hour (hover to see other rain measurements)
** Current wind speed in m/s (hover to see current wind gust speed)